Time,TemperatureF,DewpointF,PressureIn,WindDirection,WindDirectionDegrees,WindSpeedMPH,WindSpeedGustMPH,Humidity,HourlyPrecipIn,Conditions,Clouds,dailyrainin,SolarRadiationWatts/m^2,SoftwareType,DateUTC
2013-08-08 00:00:00,70.4,67.3,30.04,NNW,343,2.0,7.0,90,0.04,,,0.06,0.00,VWS V14.01,2013-08-08 04:00:00,
2013-08-08 00:01:00,70.4,67.3,30.04,NNW,343,2.0,7.0,90,0.04,,,0.06,0.00,VWS V14.01,2013-08-08 04:01:00,
2013-08-08 00:06:00,70.4,67.7,30.04,WNW,293,0.0,6.0,91,0.04,,,0.00,0.00,VWS V14.01,2013-08-08 04:06:00,
2013-08-08 00:15:00,70.4,67.7,30.04,NW,323,1.0,4.0,91,0.07,,,0.03,0.00,VWS V14.01,2013-08-08 04:15:00,
2013-08-08 00:30:00,70.3,67.9,30.03,WNW,298,0.0,8.0,92,0.08,,,0.04,0.00,VWS V14.01,2013-08-08 04:30:00,
2013-08-08 00:45:00,70.3,67.9,30.03,NNW,335,2.0,6.0,92,0.06,,,0.04,0.00,VWS V14.01,2013-08-08 04:45:00,
2013-08-08 01:00:00,70.3,67.9,30.03,West,259,0.0,8.0,92,0.05,,,0.04,0.00,VWS V14.01,2013-08-08 05:00:00,
2013-08-08 01:15:00,70.4,68.0,30.03,WSW,250,4.0,8.0,92,0.04,,,0.04,0.00,VWS V14.01,2013-08-08 05:15:00,
2013-08-08 01:30:00,70.4,68.0,30.03,WSW,246,0.0,0.0,92,0.01,,,0.04,0.00,VWS V14.01,2013-08-08 05:30:00,
2013-08-08 01:31:00,70.4,68.0,30.03,WSW,246,0.0,0.0,92,0.00,,,0.04,0.00,VWS V14.01,2013-08-08 05:31:00,
2013-08-08 01:36:00,70.4,68.0,30.03,SW,222,0.0,6.0,92,0.00,,,0.04,0.00,VWS V14.01,2013-08-08 05:36:00,
2013-08-08 01:41:00,70.4,68.0,30.03,WSW,240,2.0,6.0,92,0.00,,,0.04,0.00,VWS V14.01,2013-08-08 05:41:00,
2013-08-08 01:45:00,70.4,68.0,30.02,West,269,5.0,8.0,92,0.00,,,0.04,0.00,VWS V14.01,2013-08-08 05:45:00,
2013-08-08 01:46:00,70.4,68.0,30.02,West,269,6.0,8.0,92,0.00,,,0.04,0.00,VWS V14.01,2013-08-08 05:46:00,
2013-08-08 01:51:00,70.4,68.0,30.02,SW,236,2.0,6.0,92,0.00,,,0.04,0.00,VWS V14.01,2013-08-08 05:51:00,
2013-08-08 01:56:00,70.6,67.8,30.02,WSW,253,4.0,7.0,91,0.00,,,0.04,0.00,VWS V14.01,2013-08-08 05:56:00,
2013-08-08 02:00:00,70.4,67.7,30.03,WSW,240,2.0,7.0,91,0.00,,,0.04,0.00,VWS V14.01,2013-08-08 06:00:00,
2013-08-08 02:01:00,70.4,67.7,30.03,WSW,240,2.0,7.0,91,0.00,,,0.04,0.00,VWS V14.01,2013-08-08 06:01:00,
2013-08-08 02:06:00,70.4,67.7,30.03,West,261,2.0,6.0,91,0.00,,,0.04,0.00,VWS V14.01,2013-08-08 06:06:00,
2013-08-08 02:11:00,70.4,67.7,30.03,WSW,246,5.0,7.0,91,0.00,,,0.04,0.00,VWS V14.01,2013-08-08 06:11:00,
2013-08-08 02:15:00,70.4,67.7,30.03,WSW,244,3.0,7.0,91,0.00,,,0.04,0.00,VWS V14.01,2013-08-08 06:15:00,
2013-08-08 02:21:00,70.4,67.7,30.03,WSW,244,3.0,6.0,91,0.00,,,0.04,0.00,VWS V14.01,2013-08-08 06:21:00,
2013-08-08 02:26:00,70.4,67.7,30.03,SW,221,0.0,6.0,91,0.00,,,0.04,0.00,VWS V14.01,2013-08-08 06:26:00,
2013-08-08 02:30:00,70.3,67.6,30.02,SW,221,0.0,6.0,91,0.00,,,0.04,0.00,VWS V14.01,2013-08-08 06:30:00,
2013-08-08 02:31:00,70.3,67.6,30.02,SW,221,0.0,6.0,91,0.00,,,0.04,0.00,VWS V14.01,2013-08-08 06:31:00,
2013-08-08 02:36:00,70.3,67.6,30.02,West,267,0.0,7.0,91,0.00,,,0.04,0.00,VWS V14.01,2013-08-08 06:36:00,
2013-08-08 02:41:00,70.1,67.4,30.02,WSW,249,3.0,7.0,91,0.00,,,0.04,0.00,VWS V14.01,2013-08-08 06:41:00,
2013-08-08 02:45:00,70.1,67.4,30.02,SSW,212,4.0,7.0,91,0.00,,,0.04,0.00,VWS V14.01,2013-08-08 06:45:00,
2013-08-08 02:46:00,70.1,67.4,30.02,SSW,195,5.0,7.0,91,0.00,,,0.04,0.00,VWS V14.01,2013-08-08 06:46:00,
2013-08-08 02:51:00,70.1,67.4,30.02,SW,223,4.0,9.0,91,0.00,,,0.04,0.00,VWS V14.01,2013-08-08 06:51:00,
2013-08-08 02:56:00,70.1,67.4,30.02,West,266,0.0,9.0,91,0.00,,,0.04,0.00,VWS V14.01,2013-08-08 06:56:00,
2013-08-08 03:00:00,70.3,67.6,30.02,WNW,287,3.0,9.0,91,0.00,,,0.04,0.00,VWS V14.01,2013-08-08 07:00:00,
2013-08-08 03:01:00,70.3,67.6,30.02,WNW,287,4.0,9.0,91,0.00,,,0.04,0.00,VWS V14.01,2013-08-08 07:01:00,
2013-08-08 03:05:00,70.3,67.6,30.02,NNW,348,5.0,7.0,91,0.00,,,0.04,0.00,VWS V14.01,2013-08-08 07:05:00,
2013-08-08 03:10:00,70.3,67.6,30.02,WNW,296,2.0,7.0,91,0.00,,,0.04,0.00,VWS V14.01,2013-08-08 07:10:00,
2013-08-08 03:15:00,70.3,67.6,30.02,WNW,296,4.0,7.0,91,0.00,,,0.04,0.00,VWS V14.01,2013-08-08 07:15:00,
2013-08-08 03:20:00,70.1,67.4,30.02,WNW,294,6.0,6.0,91,0.00,,,0.04,0.00,VWS V14.01,2013-08-08 07:20:00,
2013-08-08 03:25:00,70.1,67.4,30.02,WSW,240,2.0,7.0,91,0.00,,,0.04,0.00,VWS V14.01,2013-08-08 07:25:00,
2013-08-08 03:30:00,70.1,67.4,30.02,WSW,242,4.0,7.0,91,0.00,,,0.04,0.00,VWS V14.01,2013-08-08 07:30:00,
2013-08-08 03:35:00,70.1,67.4,30.02,WSW,243,0.0,5.0,91,0.00,,,0.04,0.00,VWS V14.01,2013-08-08 07:35:00,
2013-08-08 03:40:00,70.1,67.4,30.02,WSW,253,0.0,6.0,91,0.00,,,0.04,0.00,VWS V14.01,2013-08-08 07:40:00,
2013-08-08 03:45:00,69.9,67.2,30.01,WSW,246,2.0,7.0,91,0.00,,,0.04,0.00,VWS V14.01,2013-08-08 07:45:00,
2013-08-08 03:50:00,69.9,67.2,30.01,SW,231,0.0,5.0,91,0.00,,,0.04,0.00,VWS V14.01,2013-08-08 07:50:00,
2013-08-08 03:55:00,69.9,67.2,30.01,WSW,252,5.0,6.0,91,0.00,,,0.04,0.00,VWS V14.01,2013-08-08 07:55:00,
2013-08-08 04:00:00,69.9,67.2,30.01,WSW,252,0.0,6.0,91,0.00,,,0.04,0.00,VWS V14.01,2013-08-08 08:00:00,
2013-08-08 04:05:00,69.9,67.2,30.01,WSW,252,0.0,1.0,91,0.00,,,0.04,0.00,VWS V14.01,2013-08-08 08:05:00,
2013-08-08 04:10:00,69.8,67.1,30.01,WSW,252,0.0,1.0,91,0.00,,,0.04,0.00,VWS V14.01,2013-08-08 08:10:00,
2013-08-08 04:15:00,69.8,67.1,30.01,WSW,252,0.0,1.0,91,0.00,,,0.04,0.00,VWS V14.01,2013-08-08 08:15:00,
2013-08-08 04:20:00,69.8,67.1,30.01,WSW,252,0.0,0.0,91,0.00,,,0.04,0.00,VWS V14.01,2013-08-08 08:20:00,
2013-08-08 04:25:00,69.6,67.2,30.01,WSW,252,0.0,0.0,92,0.00,,,0.04,0.00,VWS V14.01,2013-08-08 08:25:00,
2013-08-08 04:30:00,69.6,67.2,30.01,WSW,252,0.0,0.0,92,0.00,,,0.04,0.00,VWS V14.01,2013-08-08 08:30:00,
2013-08-08 04:35:00,69.6,67.2,30.01,WSW,252,0.0,0.0,92,0.00,,,0.04,0.00,VWS V14.01,2013-08-08 08:35:00,
2013-08-08 04:40:00,69.6,67.2,30.01,WSW,252,0.0,4.0,92,0.00,,,0.04,0.00,VWS V14.01,2013-08-08 08:40:00,
2013-08-08 04:45:00,69.4,67.0,30.01,WSW,250,1.0,5.0,92,0.00,,,0.04,0.00,VWS V14.01,2013-08-08 08:45:00,
2013-08-08 04:50:00,69.4,67.0,30.01,SW,227,0.0,7.0,92,0.00,,,0.04,0.00,VWS V14.01,2013-08-08 08:50:00,
2013-08-08 04:55:00,69.4,67.0,30.01,WSW,237,7.0,7.0,92,0.00,,,0.04,0.00,VWS V14.01,2013-08-08 08:55:00,
2013-08-08 05:00:00,69.3,66.9,30.01,SW,226,5.0,9.0,92,0.00,,,0.04,0.00,VWS V14.01,2013-08-08 09:00:00,
2013-08-08 05:05:00,69.3,66.9,30.01,SSW,196,0.0,6.0,92,0.00,,,0.04,0.00,VWS V14.01,2013-08-08 09:05:00,
2013-08-08 05:10:00,69.3,66.9,30.01,WSW,239,0.0,9.0,92,0.00,,,0.04,0.00,VWS V14.01,2013-08-08 09:10:00,
2013-08-08 05:15:00,69.3,66.9,30.01,SW,218,5.0,9.0,92,0.00,,,0.04,0.00,VWS V14.01,2013-08-08 09:15:00,
2013-08-08 05:20:00,69.1,66.7,30.01,SW,232,6.0,8.0,92,0.00,,,0.04,0.00,VWS V14.01,2013-08-08 09:20:00,
2013-08-08 05:25:00,69.1,66.7,30.01,SSW,192,9.0,11.0,92,0.00,,,0.04,0.00,VWS V14.01,2013-08-08 09:25:00,
2013-08-08 05:30:00,69.1,66.7,30.01,WSW,238,2.0,11.0,92,0.00,,,0.04,0.00,VWS V14.01,2013-08-08 09:30:00,
2013-08-08 05:35:00,69.1,66.7,30.01,SSW,202,0.0,7.0,92,0.00,,,0.04,0.00,VWS V14.01,2013-08-08 09:35:00,
2013-08-08 05:40:00,69.3,66.9,30.01,WSW,240,0.0,7.0,92,0.00,,,0.04,0.00,VWS V14.01,2013-08-08 09:40:00,
2013-08-08 05:45:00,69.3,66.9,30.01,SE,133,0.0,7.0,92,0.00,,,0.04,0.00,VWS V14.01,2013-08-08 09:45:00,
2013-08-08 05:50:00,69.3,66.9,30.01,North,355,0.0,1.0,92,0.00,,,0.04,0.00,VWS V14.01,2013-08-08 09:50:00,
2013-08-08 05:55:00,69.3,66.9,30.01,NW,318,0.0,1.0,92,0.00,,,0.04,0.00,VWS V14.01,2013-08-08 09:55:00,
2013-08-08 06:00:00,69.3,66.9,30.01,West,266,0.0,1.0,92,0.00,,,0.04,0.00,VWS V14.01,2013-08-08 10:00:00,
2013-08-08 06:05:00,69.3,66.9,30.01,SW,236,4.0,7.0,92,0.00,,,0.04,5.00,VWS V14.01,2013-08-08 10:05:00,
2013-08-08 06:10:00,69.3,66.9,30.01,WSW,254,0.0,7.0,92,0.00,,,0.04,7.00,VWS V14.01,2013-08-08 10:10:00,
2013-08-08 06:15:00,69.4,67.0,30.02,WSW,257,5.0,7.0,92,0.00,,,0.04,11.00,VWS V14.01,2013-08-08 10:15:00,
2013-08-08 06:20:00,69.4,67.0,30.02,WSW,250,0.0,7.0,92,0.00,,,0.04,14.00,VWS V14.01,2013-08-08 10:20:00,
2013-08-08 06:25:00,69.4,67.0,30.02,SE,138,0.0,8.0,92,0.00,,,0.04,14.00,VWS V14.01,2013-08-08 10:25:00,
2013-08-08 06:30:00,69.4,67.0,30.03,West,262,0.0,8.0,92,0.00,,,0.04,12.00,VWS V14.01,2013-08-08 10:30:00,
2013-08-08 06:35:00,69.4,67.0,30.03,SSW,204,0.0,2.0,92,0.00,,,0.04,12.00,VWS V14.01,2013-08-08 10:35:00,
2013-08-08 06:40:00,69.4,67.0,30.03,SSW,210,5.0,6.0,92,0.00,,,0.04,12.00,VWS V14.01,2013-08-08 10:40:00,
2013-08-08 06:45:00,69.6,67.2,30.03,SSW,211,5.0,8.0,92,0.00,,,0.04,11.00,VWS V14.01,2013-08-08 10:45:00,
2013-08-08 06:50:00,69.6,67.2,30.03,SW,227,0.0,6.0,92,0.00,,,0.04,12.00,VWS V14.01,2013-08-08 10:50:00,
2013-08-08 06:55:00,69.6,67.2,30.03,WNW,283,0.0,6.0,92,0.00,,,0.04,23.00,VWS V14.01,2013-08-08 10:55:00,
2013-08-08 07:00:00,69.6,67.2,30.03,SW,236,0.0,6.0,92,0.00,,,0.04,33.00,VWS V14.01,2013-08-08 11:00:00,
2013-08-08 07:05:00,69.6,67.2,30.03,SW,225,1.0,5.0,92,0.00,,,0.04,51.00,VWS V14.01,2013-08-08 11:05:00,
2013-08-08 07:10:00,69.6,67.2,30.03,WSW,242,3.0,7.0,92,0.00,,,0.04,63.00,VWS V14.01,2013-08-08 11:10:00,
2013-08-08 07:15:00,69.8,67.4,30.03,WSW,242,0.0,7.0,92,0.00,,,0.04,91.00,VWS V14.01,2013-08-08 11:15:00,
2013-08-08 07:30:00,69.9,67.5,30.03,West,270,1.0,5.0,92,0.00,,,0.04,69.00,VWS V14.01,2013-08-08 11:30:00,
2013-08-08 07:45:00,70.1,67.4,30.03,West,270,1.0,7.0,91,0.00,,,0.04,66.00,VWS V14.01,2013-08-08 11:45:00,
2013-08-08 08:00:00,70.4,67.7,30.04,West,270,0.0,4.0,91,0.00,,,0.04,89.00,VWS V14.01,2013-08-08 12:00:00,
2013-08-08 08:15:00,70.9,67.8,30.04,West,270,1.0,5.0,90,0.00,,,0.04,148.00,VWS V14.01,2013-08-08 12:15:00,
2013-08-08 08:30:00,71.3,67.9,30.04,WNW,292,1.0,5.0,89,0.00,,,0.04,130.00,VWS V14.01,2013-08-08 12:30:00,
2013-08-08 09:00:00,72.5,68.4,30.04,WSW,240,0.0,1.0,87,0.00,,,0.04,250.00,VWS V14.01,2013-08-08 13:00:00,
2013-08-08 09:05:00,72.8,68.4,30.04,SW,236,2.0,5.0,86,0.00,,,0.04,181.00,VWS V14.01,2013-08-08 13:05:00,
2013-08-08 09:10:00,72.8,68.4,30.04,SW,215,5.0,6.0,86,0.00,,,0.04,141.00,VWS V14.01,2013-08-08 13:10:00,
2013-08-08 09:15:00,72.8,68.4,30.04,SSW,199,4.0,7.0,86,0.00,,,0.04,98.00,VWS V14.01,2013-08-08 13:15:00,
2013-08-08 09:20:00,72.8,68.4,30.04,WSW,249,4.0,7.0,86,0.00,,,0.04,113.00,VWS V14.01,2013-08-08 13:20:00,
2013-08-08 09:25:00,72.7,68.3,30.04,SW,221,5.0,7.0,86,0.00,,,0.04,204.00,VWS V14.01,2013-08-08 13:25:00,
2013-08-08 09:30:00,72.7,68.6,30.04,West,261,1.0,5.0,87,0.00,,,0.04,186.00,VWS V14.01,2013-08-08 13:30:00,
2013-08-08 09:35:00,72.7,68.6,30.04,West,277,4.0,5.0,87,0.00,,,0.04,220.00,VWS V14.01,2013-08-08 13:35:00,
2013-08-08 09:40:00,72.7,68.3,30.04,West,261,6.0,8.0,86,0.00,,,0.04,132.00,VWS V14.01,2013-08-08 13:40:00,
2013-08-08 09:45:00,72.7,68.6,30.04,SW,217,2.0,7.0,87,0.00,,,0.04,120.00,VWS V14.01,2013-08-08 13:45:00,
2013-08-08 09:49:00,72.8,68.7,30.04,SW,229,0.0,7.0,87,0.00,,,0.04,121.00,VWS V14.01,2013-08-08 13:49:00,
2013-08-08 09:54:00,72.7,68.3,30.04,SSW,207,6.0,7.0,86,0.00,,,0.04,113.00,VWS V14.01,2013-08-08 13:54:00,
2013-08-08 09:59:00,72.7,68.6,30.04,SW,224,2.0,6.0,87,0.00,,,0.04,116.00,VWS V14.01,2013-08-08 13:59:00,
2013-08-08 10:00:00,72.7,68.6,30.04,SSW,206,0.0,7.0,87,0.00,,,0.04,120.00,VWS V14.01,2013-08-08 14:00:00,
2013-08-08 10:04:00,72.7,68.6,30.04,SSW,213,5.0,8.0,87,0.00,,,0.04,156.00,VWS V14.01,2013-08-08 14:04:00,
2013-08-08 10:09:00,72.7,68.9,30.04,SW,228,0.0,8.0,88,0.00,,,0.04,171.00,VWS V14.01,2013-08-08 14:09:00,
2013-08-08 10:14:00,72.7,68.9,30.04,SW,232,2.0,4.0,88,0.00,,,0.04,120.00,VWS V14.01,2013-08-08 14:14:00,
2013-08-08 10:15:00,72.7,68.9,30.04,SSW,212,2.0,8.0,88,0.00,,,0.04,120.00,VWS V14.01,2013-08-08 14:15:00,
2013-08-08 10:19:00,72.7,68.9,30.04,SW,233,4.0,7.0,88,0.00,,,0.04,149.00,VWS V14.01,2013-08-08 14:19:00,
2013-08-08 10:24:00,72.5,68.8,30.04,SW,230,4.0,9.0,88,0.00,,,0.04,151.00,VWS V14.01,2013-08-08 14:24:00,
2013-08-08 10:29:00,72.5,68.8,30.04,SW,235,2.0,6.0,88,0.00,,,0.04,146.00,VWS V14.01,2013-08-08 14:29:00,
2013-08-08 10:30:00,72.5,68.8,30.04,WSW,244,5.0,9.0,88,0.00,,,0.04,137.00,VWS V14.01,2013-08-08 14:30:00,
2013-08-08 10:34:00,72.5,69.1,30.04,South,170,0.0,6.0,89,0.00,,,0.04,174.00,VWS V14.01,2013-08-08 14:34:00,
2013-08-08 10:39:00,72.7,68.9,30.04,West,271,0.0,6.0,88,0.00,,,0.04,199.00,VWS V14.01,2013-08-08 14:39:00,
2013-08-08 10:44:00,72.8,69.0,30.03,SW,236,5.0,6.0,88,0.00,,,0.04,320.00,VWS V14.01,2013-08-08 14:44:00,
2013-08-08 10:45:00,72.7,68.9,30.03,West,275,0.0,7.0,88,0.00,,,0.04,290.00,VWS V14.01,2013-08-08 14:45:00,
2013-08-08 10:49:00,73.0,69.2,30.03,SW,230,0.0,7.0,88,0.00,,,0.04,185.00,VWS V14.01,2013-08-08 14:49:00,
2013-08-08 10:54:00,73.2,69.1,30.03,West,279,4.0,7.0,87,0.00,,,0.04,155.00,VWS V14.01,2013-08-08 14:54:00,
2013-08-08 10:59:00,73.2,69.1,30.03,West,262,3.0,5.0,87,0.00,,,0.04,156.00,VWS V14.01,2013-08-08 14:59:00,
2013-08-08 11:00:00,73.2,69.1,30.03,SW,236,0.0,7.0,87,0.00,,,0.04,176.00,VWS V14.01,2013-08-08 15:00:00,
2013-08-08 11:04:00,73.2,69.1,30.03,WSW,242,4.0,7.0,87,0.00,,,0.04,158.00,VWS V14.01,2013-08-08 15:04:00,
2013-08-08 11:09:00,73.3,69.2,30.03,WSW,242,0.0,7.0,87,0.00,,,0.04,225.00,VWS V14.01,2013-08-08 15:09:00,
2013-08-08 11:14:00,73.7,69.3,30.03,WSW,242,0.0,0.0,86,0.00,,,0.04,167.00,VWS V14.01,2013-08-08 15:14:00,
2013-08-08 11:15:00,73.7,69.3,30.03,WSW,242,0.0,7.0,86,0.00,,,0.04,185.00,VWS V14.01,2013-08-08 15:15:00,
2013-08-08 11:19:00,73.9,69.4,30.03,WSW,258,0.0,5.0,86,0.00,,,0.04,251.00,VWS V14.01,2013-08-08 15:19:00,
2013-08-08 11:24:00,74.0,69.6,30.03,SW,228,0.0,5.0,86,0.00,,,0.04,279.00,VWS V14.01,2013-08-08 15:24:00,
2013-08-08 11:29:00,74.2,69.4,30.02,WSW,246,4.0,8.0,85,0.00,,,0.04,246.00,VWS V14.01,2013-08-08 15:29:00,
2013-08-08 11:30:00,74.2,69.4,30.02,SW,231,8.0,8.0,85,0.00,,,0.04,200.00,VWS V14.01,2013-08-08 15:30:00,
2013-08-08 11:34:00,74.4,69.3,30.02,SW,232,0.0,8.0,84,0.00,,,0.04,246.00,VWS V14.01,2013-08-08 15:34:00,
2013-08-08 11:39:00,74.6,69.4,30.02,West,280,4.0,8.0,84,0.00,,,0.04,158.00,VWS V14.01,2013-08-08 15:39:00,
2013-08-08 11:44:00,74.7,69.2,30.02,West,263,5.0,6.0,83,0.00,,,0.04,190.00,VWS V14.01,2013-08-08 15:44:00,
2013-08-08 11:45:00,74.6,69.1,30.02,West,281,4.0,8.0,83,0.00,,,0.04,167.00,VWS V14.01,2013-08-08 15:45:00,
2013-08-08 11:49:00,74.7,69.2,30.02,WSW,238,4.0,6.0,83,0.00,,,0.04,313.00,VWS V14.01,2013-08-08 15:49:00,
2013-08-08 11:54:00,75.3,69.8,30.02,WSW,254,0.0,8.0,83,0.00,,,0.04,563.00,VWS V14.01,2013-08-08 15:54:00,
2013-08-08 11:59:00,76.1,69.5,30.02,West,269,5.0,9.0,80,0.00,,,0.04,429.00,VWS V14.01,2013-08-08 15:59:00,
2013-08-08 12:00:00,76.1,69.8,30.02,NW,308,3.0,8.0,81,0.00,,,0.04,429.00,VWS V14.01,2013-08-08 16:00:00,
2013-08-08 12:04:00,76.3,70.4,30.02,West,271,5.0,9.0,82,0.00,,,0.04,394.00,VWS V14.01,2013-08-08 16:04:00,
2013-08-08 12:09:00,76.1,69.5,30.02,WSW,240,6.0,9.0,80,0.00,,,0.04,320.00,VWS V14.01,2013-08-08 16:09:00,
2013-08-08 12:14:00,76.1,69.8,30.02,West,267,0.0,2.0,81,0.00,,,0.04,223.00,VWS V14.01,2013-08-08 16:14:00,
2013-08-08 12:15:00,76.1,69.8,30.02,West,267,2.0,9.0,81,0.00,,,0.04,241.00,VWS V14.01,2013-08-08 16:15:00,
2013-08-08 12:19:00,76.3,69.7,30.02,WSW,240,2.0,7.0,80,0.00,,,0.04,265.00,VWS V14.01,2013-08-08 16:19:00,
2013-08-08 12:24:00,76.5,69.9,30.02,West,273,4.0,7.0,80,0.00,,,0.04,243.00,VWS V14.01,2013-08-08 16:24:00,
2013-08-08 12:29:00,76.5,69.5,30.02,SW,227,4.0,6.0,79,0.00,,,0.04,302.00,VWS V14.01,2013-08-08 16:29:00,
2013-08-08 12:30:00,76.5,69.5,30.02,WSW,242,0.0,8.0,79,0.00,,,0.04,285.00,VWS V14.01,2013-08-08 16:30:00,
2013-08-08 12:34:00,76.7,69.7,30.02,WSW,238,8.0,8.0,79,0.00,,,0.04,443.00,VWS V14.01,2013-08-08 16:34:00,
2013-08-08 12:39:00,76.8,69.4,30.02,WSW,238,0.0,9.0,78,0.00,,,0.04,380.00,VWS V14.01,2013-08-08 16:39:00,
2013-08-08 12:44:00,77.2,70.2,30.02,SE,142,8.0,8.0,79,0.00,,,0.04,577.00,VWS V14.01,2013-08-08 16:44:00,
2013-08-08 12:45:00,77.0,69.6,30.02,WSW,255,4.0,9.0,78,0.00,,,0.04,519.00,VWS V14.01,2013-08-08 16:45:00,
2013-08-08 12:49:00,77.7,70.3,30.02,SSW,213,0.0,8.0,78,0.00,,,0.04,649.00,VWS V14.01,2013-08-08 16:49:00,
2013-08-08 12:54:00,78.5,69.9,30.02,SW,236,8.0,10.0,75,0.00,,,0.04,1005.00,VWS V14.01,2013-08-08 16:54:00,
2013-08-08 12:59:00,78.6,68.8,30.01,South,189,0.0,8.0,72,0.00,,,0.04,404.00,VWS V14.01,2013-08-08 16:59:00,
2013-08-08 13:00:00,78.8,69.4,30.01,SSW,204,8.0,10.0,73,0.00,,,0.04,1028.00,VWS V14.01,2013-08-08 17:00:00,
2013-08-08 13:04:00,78.5,69.5,30.01,WSW,255,8.0,12.0,74,0.00,,,0.04,341.00,VWS V14.01,2013-08-08 17:04:00,
2013-08-08 13:09:00,78.5,70.3,30.01,WNW,284,1.0,12.0,76,0.00,,,0.04,244.00,VWS V14.01,2013-08-08 17:09:00,
2013-08-08 13:14:00,78.3,70.1,30.02,West,261,3.0,5.0,76,0.00,,,0.04,272.00,VWS V14.01,2013-08-08 17:14:00,
2013-08-08 13:15:00,78.3,70.1,30.02,West,269,0.0,12.0,76,0.00,,,0.04,271.00,VWS V14.01,2013-08-08 17:15:00,
2013-08-08 13:19:00,78.5,69.9,30.02,West,271,9.0,11.0,75,0.00,,,0.04,517.00,VWS V14.01,2013-08-08 17:19:00,
2013-08-08 13:24:00,78.6,69.6,30.02,WSW,240,0.0,11.0,74,0.00,,,0.04,519.00,VWS V14.01,2013-08-08 17:24:00,
2013-08-08 13:29:00,79.6,70.6,30.02,SW,220,1.0,6.0,74,0.00,,,0.04,670.00,VWS V14.01,2013-08-08 17:29:00,
2013-08-08 13:30:00,79.4,70.8,30.02,WSW,247,1.0,11.0,75,0.00,,,0.04,758.00,VWS V14.01,2013-08-08 17:30:00,
2013-08-08 13:34:00,79.8,70.8,30.02,West,265,0.0,7.0,74,0.00,,,0.04,294.00,VWS V14.01,2013-08-08 17:34:00,
2013-08-08 13:39:00,79.6,70.2,30.02,SW,230,7.0,10.0,73,0.00,,,0.04,397.00,VWS V14.01,2013-08-08 17:39:00,
2013-08-08 13:44:00,79.2,70.2,30.02,West,261,6.0,9.0,74,0.00,,,0.04,339.00,VWS V14.01,2013-08-08 17:44:00,
2013-08-08 13:45:00,79.2,70.2,30.02,SW,231,8.0,10.0,74,0.00,,,0.04,388.00,VWS V14.01,2013-08-08 17:45:00,
2013-08-08 13:49:00,79.4,70.4,30.02,WSW,250,4.0,9.0,74,0.00,,,0.04,373.00,VWS V14.01,2013-08-08 17:49:00,
2013-08-08 13:54:00,79.6,70.2,30.02,SSW,200,8.0,9.0,73,0.00,,,0.04,522.00,VWS V14.01,2013-08-08 17:54:00,
2013-08-08 13:59:00,79.8,70.4,30.02,WSW,256,2.0,6.0,73,0.00,,,0.04,436.00,VWS V14.01,2013-08-08 17:59:00,
2013-08-08 14:00:00,79.8,70.4,30.02,SW,234,2.0,9.0,73,0.00,,,0.04,485.00,VWS V14.01,2013-08-08 18:00:00,
2013-08-08 14:04:00,79.8,70.8,30.02,SW,225,0.0,8.0,74,0.00,,,0.04,381.00,VWS V14.01,2013-08-08 18:04:00,
2013-08-08 14:09:00,80.3,70.9,30.02,WSW,244,1.0,8.0,73,0.00,,,0.04,364.00,VWS V14.01,2013-08-08 18:09:00,
2013-08-08 14:14:00,80.1,70.7,30.02,WSW,252,2.0,7.0,73,0.00,,,0.04,417.00,VWS V14.01,2013-08-08 18:14:00,
2013-08-08 14:15:00,80.1,70.7,30.02,WSW,253,4.0,8.0,73,0.00,,,0.04,417.00,VWS V14.01,2013-08-08 18:15:00,
2013-08-08 14:19:00,79.9,70.5,30.02,SW,221,0.0,7.0,73,0.00,,,0.04,381.00,VWS V14.01,2013-08-08 18:19:00,
2013-08-08 14:24:00,80.5,70.7,30.02,WSW,253,7.0,7.0,72,0.00,,,0.04,415.00,VWS V14.01,2013-08-08 18:24:00,
2013-08-08 14:29:00,80.3,70.5,30.01,West,262,5.0,5.0,72,0.00,,,0.04,373.00,VWS V14.01,2013-08-08 18:29:00,
2013-08-08 14:30:00,80.1,70.3,30.01,West,263,0.0,8.0,72,0.00,,,0.04,364.00,VWS V14.01,2013-08-08 18:30:00,
2013-08-08 14:34:00,80.3,70.5,30.01,WSW,239,9.0,10.0,72,0.00,,,0.04,524.00,VWS V14.01,2013-08-08 18:34:00,
2013-08-08 14:39:00,80.5,70.2,30.01,West,260,6.0,10.0,71,0.00,,,0.04,455.00,VWS V14.01,2013-08-08 18:39:00,
2013-08-08 14:44:00,80.5,70.2,30.01,West,271,5.0,7.0,71,0.00,,,0.04,346.00,VWS V14.01,2013-08-08 18:44:00,
2013-08-08 14:45:00,80.7,70.4,30.01,WSW,245,2.0,10.0,71,0.00,,,0.04,346.00,VWS V14.01,2013-08-08 18:45:00,
2013-08-08 14:49:00,80.5,70.7,30.01,WSW,240,0.0,9.0,72,0.00,,,0.04,262.00,VWS V14.01,2013-08-08 18:49:00,
2013-08-08 14:54:00,80.3,70.5,30.01,WSW,244,5.0,9.0,72,0.00,,,0.04,274.00,VWS V14.01,2013-08-08 18:54:00,
2013-08-08 14:59:00,80.5,70.7,30.01,West,271,0.0,0.0,72,0.00,,,0.04,236.00,VWS V14.01,2013-08-08 18:59:00,
2013-08-08 15:00:00,80.5,70.7,30.01,West,271,0.0,9.0,72,0.00,,,0.04,244.00,VWS V14.01,2013-08-08 19:00:00,
2013-08-08 15:04:00,80.3,70.9,30.01,West,267,0.0,1.0,73,0.00,,,0.04,163.00,VWS V14.01,2013-08-08 19:04:00,
2013-08-08 15:09:00,80.7,70.8,30.01,West,265,0.0,5.0,72,0.00,,,0.04,183.00,VWS V14.01,2013-08-08 19:09:00,
2013-08-08 15:14:00,81.1,71.2,30.01,WSW,257,0.0,0.0,72,0.00,,,0.04,72.00,VWS V14.01,2013-08-08 19:14:00,
2013-08-08 15:15:00,80.9,71.0,30.01,WSW,257,0.0,5.0,72,0.00,,,0.04,81.00,VWS V14.01,2013-08-08 19:15:00,
2013-08-08 15:19:00,80.7,71.2,30.01,WSW,238,0.0,11.0,73,0.00,,,0.04,90.00,VWS V14.01,2013-08-08 19:19:00,
2013-08-08 15:24:00,80.3,70.9,30.01,West,273,3.0,11.0,73,0.01,,,0.05,69.00,VWS V14.01,2013-08-08 19:24:00,
2013-08-08 15:29:00,79.4,71.2,30.02,WNW,300,0.0,2.0,76,0.03,,,0.07,114.00,VWS V14.01,2013-08-08 19:29:00,
2013-08-08 15:30:00,79.6,71.4,30.02,West,264,2.0,11.0,76,0.03,,,0.07,105.00,VWS V14.01,2013-08-08 19:30:00,
2013-08-08 15:34:00,78.3,70.9,30.02,WNW,282,0.0,5.0,78,0.03,,,0.07,176.00,VWS V14.01,2013-08-08 19:34:00,
2013-08-08 15:39:00,76.8,71.6,30.02,West,280,0.0,5.0,84,0.03,,,0.07,192.00,VWS V14.01,2013-08-08 19:39:00,
2013-08-08 15:44:00,76.7,71.9,30.01,WNW,282,0.0,0.0,85,0.03,,,0.07,227.00,VWS V14.01,2013-08-08 19:44:00,
2013-08-08 15:45:00,76.5,71.7,30.01,WNW,282,0.0,5.0,85,0.03,,,0.07,218.00,VWS V14.01,2013-08-08 19:45:00,
2013-08-08 15:49:00,77.2,73.0,30.01,WNW,282,0.0,0.0,87,0.03,,,0.07,229.00,VWS V14.01,2013-08-08 19:49:00,
2013-08-08 15:54:00,77.4,73.9,30.01,WNW,282,0.0,0.0,89,0.03,,,0.07,290.00,VWS V14.01,2013-08-08 19:54:00,
2013-08-08 15:59:00,77.0,72.2,30.00,WNW,282,0.0,0.0,85,0.03,,,0.07,355.00,VWS V14.01,2013-08-08 19:59:00,
2013-08-08 16:00:00,77.2,72.3,30.00,WNW,282,0.0,0.0,85,0.03,,,0.07,355.00,VWS V14.01,2013-08-08 20:00:00,
2013-08-08 16:04:00,77.2,72.3,30.00,NW,311,0.0,0.0,85,0.03,,,0.07,236.00,VWS V14.01,2013-08-08 20:04:00,
2013-08-08 16:09:00,76.8,71.2,30.00,WNW,300,2.0,4.0,83,0.03,,,0.07,279.00,VWS V14.01,2013-08-08 20:09:00,
2013-08-08 16:14:00,77.4,72.9,29.99,WNW,300,0.0,0.0,86,0.03,,,0.07,367.00,VWS V14.01,2013-08-08 20:14:00,
2013-08-08 16:15:00,77.2,72.7,29.99,WNW,300,0.0,4.0,86,0.03,,,0.07,367.00,VWS V14.01,2013-08-08 20:15:00,
2013-08-08 16:19:00,78.6,73.7,29.99,WNW,300,0.0,0.0,85,0.03,,,0.07,599.00,VWS V14.01,2013-08-08 20:19:00,
2013-08-08 16:24:00,79.2,73.6,29.99,WNW,300,0.0,0.0,83,0.03,,,0.07,599.00,VWS V14.01,2013-08-08 20:24:00,
2013-08-08 16:29:00,79.0,72.7,29.98,NNW,346,0.0,0.0,81,0.00,,,0.07,582.00,VWS V14.01,2013-08-08 20:29:00,
2013-08-08 16:30:00,79.0,72.7,29.98,NNW,345,0.0,0.0,81,0.03,,,0.07,582.00,VWS V14.01,2013-08-08 20:30:00,
2013-08-08 16:34:00,80.7,73.2,29.98,NNW,346,0.0,0.0,78,0.00,,,0.07,564.00,VWS V14.01,2013-08-08 20:34:00,
2013-08-08 16:39:00,80.5,74.1,29.98,NNW,345,0.0,0.0,81,0.00,,,0.07,564.00,VWS V14.01,2013-08-08 20:39:00,
2013-08-08 16:44:00,81.4,73.9,29.98,NNW,345,0.0,0.0,78,0.00,,,0.07,538.00,VWS V14.01,2013-08-08 20:44:00,
2013-08-08 16:45:00,81.4,73.9,29.98,NNW,345,0.0,0.0,78,0.00,,,0.07,552.00,VWS V14.01,2013-08-08 20:45:00,
2013-08-08 16:49:00,82.0,72.9,29.98,WSW,252,0.0,5.0,74,0.00,,,0.07,432.00,VWS V14.01,2013-08-08 20:49:00,
2013-08-08 16:54:00,81.8,73.5,29.98,WSW,257,0.0,5.0,76,0.00,,,0.07,503.00,VWS V14.01,2013-08-08 20:54:00,
2013-08-08 16:59:00,83.0,73.1,29.97,WSW,258,0.0,0.0,72,0.00,,,0.07,476.00,VWS V14.01,2013-08-08 20:59:00,
2013-08-08 17:00:00,83.0,73.5,29.97,WSW,258,0.0,5.0,73,0.00,,,0.07,476.00,VWS V14.01,2013-08-08 21:00:00,
2013-08-08 17:04:00,82.0,72.5,29.97,WSW,242,0.0,5.0,73,0.00,,,0.07,478.00,VWS V14.01,2013-08-08 21:04:00,
2013-08-08 17:09:00,82.0,72.9,29.97,WSW,243,0.0,5.0,74,0.00,,,0.07,178.00,VWS V14.01,2013-08-08 21:09:00,
2013-08-08 17:14:00,82.8,73.7,29.97,WSW,250,0.0,0.0,74,0.00,,,0.07,209.00,VWS V14.01,2013-08-08 21:14:00,
2013-08-08 17:15:00,82.6,73.5,29.97,WSW,250,0.0,5.0,74,0.00,,,0.07,353.00,VWS V14.01,2013-08-08 21:15:00,
2013-08-08 17:19:00,82.6,73.5,29.97,WSW,250,0.0,0.0,74,0.00,,,0.07,362.00,VWS V14.01,2013-08-08 21:19:00,
2013-08-08 17:24:00,82.6,73.1,29.97,West,276,0.0,0.0,73,0.00,,,0.07,366.00,VWS V14.01,2013-08-08 21:24:00,
2013-08-08 17:29:00,83.0,73.1,29.97,West,281,0.0,0.0,72,0.00,,,0.07,88.00,VWS V14.01,2013-08-08 21:29:00,
2013-08-08 17:30:00,83.0,73.1,29.97,West,281,0.0,0.0,72,0.00,,,0.07,118.00,VWS V14.01,2013-08-08 21:30:00,
2013-08-08 17:34:00,83.2,73.7,29.97,West,281,0.0,0.0,73,0.00,,,0.07,53.00,VWS V14.01,2013-08-08 21:34:00,
2013-08-08 17:39:00,83.0,73.5,29.97,East,88,9.0,9.0,73,0.00,,,0.07,28.00,VWS V14.01,2013-08-08 21:39:00,
2013-08-08 17:45:00,82.4,73.3,29.98,NNE,14,5.0,10.0,74,0.01,,,0.08,19.00,VWS V14.01,2013-08-08 21:45:00,
2013-08-08 17:50:00,81.4,72.7,29.98,North,349,1.0,10.0,75,0.01,,,0.08,39.00,VWS V14.01,2013-08-08 21:50:00,
2013-08-08 17:55:00,80.7,72.4,29.98,West,279,8.0,11.0,76,0.01,,,0.08,53.00,VWS V14.01,2013-08-08 21:55:00,
2013-08-08 18:00:00,79.6,71.4,29.98,NNW,346,6.0,9.0,76,0.01,,,0.08,26.00,VWS V14.01,2013-08-08 22:00:00,
2013-08-08 18:05:00,79.0,71.2,29.98,NNW,327,0.0,9.0,77,0.01,,,0.08,30.00,VWS V14.01,2013-08-08 22:05:00,
2013-08-08 18:10:00,78.6,70.8,29.98,West,261,4.0,9.0,77,0.01,,,0.08,62.00,VWS V14.01,2013-08-08 22:10:00,
2013-08-08 18:15:00,78.3,70.9,29.98,WNW,284,4.0,9.0,78,0.01,,,0.08,69.00,VWS V14.01,2013-08-08 22:15:00,
2013-08-08 18:16:00,78.1,70.7,29.98,West,276,0.0,5.0,78,0.01,,,0.08,58.00,VWS V14.01,2013-08-08 22:16:00,
2013-08-08 18:21:00,77.9,70.9,29.98,West,274,0.0,5.0,79,0.01,,,0.08,30.00,VWS V14.01,2013-08-08 22:21:00,
2013-08-08 18:26:00,77.7,70.3,29.98,WNW,287,0.0,6.0,78,0.01,,,0.08,25.00,VWS V14.01,2013-08-08 22:26:00,
2013-08-08 18:30:00,77.7,70.7,29.98,WNW,287,0.0,6.0,79,0.01,,,0.08,28.00,VWS V14.01,2013-08-08 22:30:00,
2013-08-08 18:31:00,77.6,70.6,29.98,NNW,333,0.0,1.0,79,0.01,,,0.08,28.00,VWS V14.01,2013-08-08 22:31:00,
2013-08-08 18:36:00,77.4,70.4,29.98,NW,309,0.0,5.0,79,0.01,,,0.08,23.00,VWS V14.01,2013-08-08 22:36:00,
2013-08-08 18:41:00,77.2,70.2,29.98,NNE,15,0.0,5.0,79,0.01,,,0.08,26.00,VWS V14.01,2013-08-08 22:41:00,
2013-08-08 18:45:00,77.2,70.6,29.99,NNE,15,0.0,5.0,80,0.01,,,0.08,25.00,VWS V14.01,2013-08-08 22:45:00,
2013-08-08 18:46:00,77.2,70.6,29.99,NNE,15,0.0,0.0,80,0.00,,,0.08,28.00,VWS V14.01,2013-08-08 22:46:00,
2013-08-08 18:51:00,77.2,70.6,29.99,NNW,347,6.0,6.0,80,0.00,,,0.08,21.00,VWS V14.01,2013-08-08 22:51:00,
2013-08-08 18:56:00,77.0,70.7,29.99,WSW,246,5.0,7.0,81,0.00,,,0.08,28.00,VWS V14.01,2013-08-08 22:56:00,
2013-08-08 19:00:00,77.0,70.7,29.98,NW,311,0.0,7.0,81,0.00,,,0.08,30.00,VWS V14.01,2013-08-08 23:00:00,
2013-08-08 19:01:00,76.8,70.5,29.98,NW,305,0.0,1.0,81,0.00,,,0.08,33.00,VWS V14.01,2013-08-08 23:01:00,
2013-08-08 19:06:00,76.8,70.9,29.98,NW,306,0.0,1.0,82,0.00,,,0.08,33.00,VWS V14.01,2013-08-08 23:06:00,
2013-08-08 19:11:00,76.7,70.8,29.98,North,9,0.0,1.0,82,0.00,,,0.08,19.00,VWS V14.01,2013-08-08 23:11:00,
2013-08-08 19:15:00,76.7,70.8,29.99,North,9,0.0,1.0,82,0.00,,,0.08,18.00,VWS V14.01,2013-08-08 23:15:00,
2013-08-08 19:16:00,76.5,70.6,29.99,NE,48,8.0,8.0,82,0.00,,,0.08,19.00,VWS V14.01,2013-08-08 23:16:00,
2013-08-08 19:22:00,76.1,69.8,29.99,NE,48,8.0,9.0,81,0.00,,,0.08,7.00,VWS V14.01,2013-08-08 23:22:00,
2013-08-08 19:27:00,75.6,69.4,29.99,NE,53,8.0,13.0,81,0.00,,,0.08,5.00,VWS V14.01,2013-08-08 23:27:00,
2013-08-08 19:30:00,75.6,69.4,29.99,ENE,66,6.0,13.0,81,0.00,,,0.08,5.00,VWS V14.01,2013-08-08 23:30:00,
2013-08-08 19:32:00,75.4,69.5,29.99,NE,49,0.0,7.0,82,0.00,,,0.08,5.00,VWS V14.01,2013-08-08 23:32:00,
2013-08-08 19:37:00,75.3,69.4,29.99,NE,49,0.0,7.0,82,0.00,,,0.08,7.00,VWS V14.01,2013-08-08 23:37:00,
2013-08-08 19:42:00,75.3,69.4,29.99,East,84,0.0,7.0,82,0.00,,,0.08,9.00,VWS V14.01,2013-08-08 23:42:00,
2013-08-08 19:45:00,75.3,69.4,29.99,NE,54,1.0,7.0,82,0.00,,,0.08,11.00,VWS V14.01,2013-08-08 23:45:00,
2013-08-08 19:47:00,75.1,69.2,29.99,NE,55,1.0,6.0,82,0.00,,,0.08,9.00,VWS V14.01,2013-08-08 23:47:00,
2013-08-08 19:52:00,75.1,69.6,29.99,East,92,0.0,6.0,83,0.00,,,0.08,9.00,VWS V14.01,2013-08-08 23:52:00,
2013-08-08 19:57:00,75.1,69.6,29.99,NE,54,5.0,6.0,83,0.00,,,0.08,5.00,VWS V14.01,2013-08-08 23:57:00,
2013-08-08 20:00:00,75.1,69.9,29.99,NE,37,0.0,7.0,84,0.00,,,0.08,5.00,VWS V14.01,2013-08-09 00:00:00,
2013-08-08 20:02:00,75.1,69.9,29.99,NE,38,0.0,1.0,84,0.00,,,0.08,0.00,VWS V14.01,2013-08-09 00:02:00,
2013-08-08 20:07:00,74.9,70.1,29.99,NE,43,0.0,6.0,85,0.00,,,0.08,0.00,VWS V14.01,2013-08-09 00:07:00,
2013-08-08 20:12:00,74.9,70.1,29.99,NE,36,6.0,9.0,85,0.00,,,0.08,0.00,VWS V14.01,2013-08-09 00:12:00,
2013-08-08 20:15:00,74.9,70.1,29.99,North,355,2.0,9.0,85,0.00,,,0.08,0.00,VWS V14.01,2013-08-09 00:15:00,
2013-08-08 20:17:00,74.9,70.1,29.99,NNW,344,0.0,10.0,85,0.00,,,0.08,0.00,VWS V14.01,2013-08-09 00:17:00,
2013-08-08 20:22:00,74.9,70.1,29.99,NNE,19,0.0,10.0,85,0.00,,,0.08,0.00,VWS V14.01,2013-08-09 00:22:00,
2013-08-08 20:28:00,74.9,70.1,29.99,WSW,252,0.0,10.0,85,0.00,,,0.08,0.00,VWS V14.01,2013-08-09 00:28:00,
2013-08-08 20:30:00,74.9,70.1,29.99,North,355,3.0,10.0,85,0.00,,,0.08,0.00,VWS V14.01,2013-08-09 00:30:00,
2013-08-08 20:33:00,74.9,70.1,29.99,West,278,2.0,6.0,85,0.00,,,0.08,0.00,VWS V14.01,2013-08-09 00:33:00,
2013-08-08 20:38:00,75.1,70.3,29.99,NW,325,0.0,6.0,85,0.00,,,0.08,0.00,VWS V14.01,2013-08-09 00:38:00,
2013-08-08 20:43:00,75.1,70.3,29.99,NE,48,1.0,9.0,85,0.00,,,0.08,0.00,VWS V14.01,2013-08-09 00:43:00,
2013-08-08 20:45:00,75.1,70.3,29.99,NE,48,0.0,9.0,85,0.00,,,0.08,0.00,VWS V14.01,2013-08-09 00:45:00,
2013-08-08 20:48:00,75.1,70.3,29.99,NE,48,0.0,0.0,85,0.00,,,0.08,0.00,VWS V14.01,2013-08-09 00:48:00,
2013-08-08 20:53:00,75.1,70.3,29.99,NE,46,0.0,5.0,85,0.00,,,0.08,0.00,VWS V14.01,2013-08-09 00:53:00,
2013-08-08 20:58:00,75.1,70.3,30.00,NE,45,5.0,6.0,85,0.00,,,0.08,0.00,VWS V14.01,2013-08-09 00:58:00,
2013-08-08 21:00:00,75.1,70.3,30.00,NE,45,5.0,6.0,85,0.00,,,0.08,0.00,VWS V14.01,2013-08-09 01:00:00,
2013-08-08 21:03:00,75.1,70.3,30.00,NE,44,0.0,5.0,85,0.00,,,0.08,0.00,VWS V14.01,2013-08-09 01:03:00,
2013-08-08 21:08:00,75.1,70.3,30.00,NE,44,0.0,5.0,85,0.00,,,0.08,0.00,VWS V14.01,2013-08-09 01:08:00,
2013-08-08 21:13:00,74.9,70.4,30.00,NE,44,0.0,5.0,86,0.00,,,0.08,0.00,VWS V14.01,2013-08-09 01:13:00,
2013-08-08 21:15:00,74.9,70.4,30.00,NE,44,0.0,5.0,86,0.00,,,0.08,0.00,VWS V14.01,2013-08-09 01:15:00,
2013-08-08 21:18:00,74.9,70.4,30.00,NE,44,0.0,0.0,86,0.00,,,0.08,0.00,VWS V14.01,2013-08-09 01:18:00,
2013-08-08 21:23:00,74.9,70.4,30.00,NE,44,0.0,0.0,86,0.00,,,0.08,0.00,VWS V14.01,2013-08-09 01:23:00,
2013-08-08 21:28:00,74.9,70.4,30.00,NE,43,0.0,1.0,86,0.00,,,0.08,0.00,VWS V14.01,2013-08-09 01:28:00,
2013-08-08 21:30:00,74.9,70.4,30.00,NE,43,0.0,1.0,86,0.00,,,0.08,0.00,VWS V14.01,2013-08-09 01:30:00,
2013-08-08 21:33:00,74.7,70.2,30.00,NE,43,0.0,0.0,86,0.00,,,0.08,0.00,VWS V14.01,2013-08-09 01:33:00,
2013-08-08 21:38:00,74.6,70.5,30.00,NE,43,0.0,0.0,87,0.00,,,0.08,0.00,VWS V14.01,2013-08-09 01:38:00,
2013-08-08 21:43:00,74.6,70.5,30.00,NE,43,0.0,1.0,87,0.00,,,0.08,0.00,VWS V14.01,2013-08-09 01:43:00,
2013-08-08 21:45:00,74.6,70.5,30.00,NE,43,0.0,1.0,87,0.00,,,0.08,0.00,VWS V14.01,2013-08-09 01:45:00,
2013-08-08 21:48:00,74.4,70.3,30.00,NE,43,0.0,0.0,87,0.00,,,0.08,0.00,VWS V14.01,2013-08-09 01:48:00,
2013-08-08 21:53:00,74.2,70.1,30.00,NE,43,0.0,0.0,87,0.00,,,0.08,0.00,VWS V14.01,2013-08-09 01:53:00,
2013-08-08 21:58:00,74.2,70.4,30.00,South,186,1.0,2.0,88,0.00,,,0.08,0.00,VWS V14.01,2013-08-09 01:58:00,
2013-08-08 22:00:00,74.2,70.4,30.00,South,186,2.0,4.0,88,0.00,,,0.08,0.00,VWS V14.01,2013-08-09 02:00:00,
2013-08-08 22:03:00,74.2,70.4,30.00,SSW,194,0.0,2.0,88,0.00,,,0.08,0.00,VWS V14.01,2013-08-09 02:03:00,
2013-08-08 22:08:00,74.0,70.2,30.00,SSW,194,0.0,2.0,88,0.00,,,0.08,0.00,VWS V14.01,2013-08-09 02:08:00,
2013-08-08 22:13:00,74.0,70.2,29.99,SSW,194,0.0,0.0,88,0.00,,,0.08,0.00,VWS V14.01,2013-08-09 02:13:00,
2013-08-08 22:15:00,74.0,70.2,29.99,SSW,194,0.0,2.0,88,0.00,,,0.08,0.00,VWS V14.01,2013-08-09 02:15:00,
2013-08-08 22:18:00,74.0,70.6,29.99,South,191,0.0,1.0,89,0.00,,,0.08,0.00,VWS V14.01,2013-08-09 02:18:00,
2013-08-08 22:24:00,74.0,70.6,29.99,WSW,248,0.0,3.0,89,0.00,,,0.08,0.00,VWS V14.01,2013-08-09 02:24:00,
2013-08-08 22:29:00,73.9,70.5,29.99,North,10,0.0,0.0,89,0.00,,,0.08,0.00,VWS V14.01,2013-08-09 02:29:00,
2013-08-08 22:30:00,73.9,70.5,29.99,North,10,0.0,3.0,89,0.00,,,0.08,0.00,VWS V14.01,2013-08-09 02:30:00,
2013-08-08 22:34:00,74.0,70.6,29.99,North,351,0.0,6.0,89,0.00,,,0.08,0.00,VWS V14.01,2013-08-09 02:34:00,
2013-08-08 22:39:00,74.0,70.6,29.99,WNW,295,0.0,6.0,89,0.00,,,0.08,0.00,VWS V14.01,2013-08-09 02:39:00,
2013-08-08 22:44:00,74.2,71.1,30.00,SW,223,0.0,0.0,90,0.00,,,0.08,0.00,VWS V14.01,2013-08-09 02:44:00,
2013-08-08 22:45:00,74.2,71.1,30.00,SW,223,0.0,6.0,90,0.00,,,0.08,0.00,VWS V14.01,2013-08-09 02:45:00,
2013-08-08 22:49:00,74.2,71.1,30.00,NNW,347,0.0,5.0,90,0.00,,,0.08,0.00,VWS V14.01,2013-08-09 02:49:00,
2013-08-08 22:54:00,74.4,70.9,30.00,North,5,0.0,5.0,89,0.00,,,0.08,0.00,VWS V14.01,2013-08-09 02:54:00,
2013-08-08 22:59:00,74.4,70.9,29.99,NNW,347,2.0,2.0,89,0.00,,,0.08,0.00,VWS V14.01,2013-08-09 02:59:00,
2013-08-08 23:00:00,74.4,70.9,29.99,NNW,347,0.0,6.0,89,0.00,,,0.08,0.00,VWS V14.01,2013-08-09 03:00:00,
2013-08-08 23:04:00,74.6,71.2,29.99,NNW,338,2.0,5.0,89,0.00,,,0.08,0.00,VWS V14.01,2013-08-09 03:04:00,
2013-08-08 23:09:00,74.6,71.2,29.99,WNW,298,7.0,7.0,89,0.00,,,0.08,0.00,VWS V14.01,2013-08-09 03:09:00,
2013-08-08 23:14:00,74.6,71.2,29.99,West,272,1.0,4.0,89,0.00,,,0.08,0.00,VWS V14.01,2013-08-09 03:14:00,
2013-08-08 23:15:00,74.6,71.2,29.99,West,272,2.0,7.0,89,0.00,,,0.08,0.00,VWS V14.01,2013-08-09 03:15:00,
2013-08-08 23:19:00,74.6,71.2,29.99,West,269,0.0,6.0,89,0.00,,,0.08,0.00,VWS V14.01,2013-08-09 03:19:00,
2013-08-08 23:24:00,74.6,71.2,29.99,West,274,0.0,6.0,89,0.00,,,0.08,0.00,VWS V14.01,2013-08-09 03:24:00,
2013-08-08 23:29:00,74.6,71.2,29.99,West,276,3.0,6.0,89,0.01,,,0.09,0.00,VWS V14.01,2013-08-09 03:29:00,
2013-08-08 23:30:00,74.6,71.2,29.99,West,280,5.0,7.0,89,0.01,,,0.09,0.00,VWS V14.01,2013-08-09 03:30:00,
2013-08-08 23:34:00,74.6,71.2,29.99,WSW,248,7.0,8.0,89,0.02,,,0.10,0.00,VWS V14.01,2013-08-09 03:34:00,
2013-08-08 23:40:00,74.6,71.2,29.99,West,279,2.0,8.0,89,0.03,,,0.11,0.00,VWS V14.01,2013-08-09 03:40:00,
2013-08-08 23:45:00,74.6,71.2,29.99,SW,235,0.0,6.0,89,0.03,,,0.11,0.00,VWS V14.01,2013-08-09 03:45:00,
2013-08-08 23:50:00,74.4,70.9,29.99,West,272,4.0,6.0,89,0.04,,,0.12,0.00,VWS V14.01,2013-08-09 03:50:00,
2013-08-08 23:55:00,74.4,70.9,29.99,West,267,0.0,6.0,89,0.04,,,0.12,0.00,VWS V14.01,2013-08-09 03:55:00,